SM6KNE Weather Reports


time (UTC)temp
F
wind
direction
speed
knots
gust
knots
rain 1hr
in
rain 24hr
in
rain mn
in
humidity
%
barometer
mb
20260502195516 55 248 6.1 6.1 0.00 0.00 0.00 64 1011.1
20260502194523 56 268 5.2 6.1 0.00 0.00 0.00 61 1011.1
20260502193523 56 260 6.1 8.7 0.00 0.00 0.00 57 1011.1
20260502192523 56 253 6.1 7.0 0.00 0.00 0.00 57 1011.1
20260502191523 57 260 7.0 8.7 0.00 0.00 0.00 58 1011.1
20260502190523 58 254 6.1 7.0 0.00 0.00 0.00 60 1011.1
20260502185523 59 269 7.8 9.6 0.00 0.00 0.00 61 1011.1
20260502184523 60 275 7.8 9.6 0.00 0.00 0.00 60 1011.1
20260502183523 61 293 3.5 7.8 0.00 0.00 0.00 56 1011.1
20260502182523 61 272 4.3 4.3 0.00 0.00 0.00 55 1011.1
20260502181516 62 284 3.5 5.2 0.00 0.00 0.00 54 1011.1
20260502180523 62 293 5.2 5.2 0.00 0.00 0.00 55 1011.1
20260502163526 71 264 6.1 9.6 0.00 0.00 0.00 38 1011.1
20260502162523 71 247 4.3 7.8 0.00 0.00 0.00 36 1011.1
20260502161518 73 246 7.8 9.6 0.00 0.00 0.00 35 1011.1
20260502160523 75 270 9.6 13.9 0.00 0.00 0.00 34 1011.1
20260502151515 77 251 8.7 9.6 0.00 0.00 0.00 32 1012.1
20260502150526 78 256 8.7 11.3 0.00 0.00 0.00 32 1012.1
20260502130523 80 225 7.0 11.3 0.00 0.00 0.00 35 1013.1
20260502123543 78 234 7.8 14.8 0.00 0.00 0.00 36 1014.1
20260502122516 77 253 12.2 15.6 0.00 0.00 0.00 37 1014.1
20260502121523 77 265 12.2 13.9 0.00 0.00 0.00 38 1014.1
20260502120519 78 248 10.4 13.0 0.00 0.00 0.00 38 1014.1
20260502115544 78 217 11.3 13.0 0.00 0.00 0.00 38 1014.1
20260502114523 77 260 11.3 11.3 0.00 0.00 0.00 39 1014.1
20260502113517 78 252 12.2 14.8 0.00 0.00 0.00 39 1015.1
20260502112524 77 258 5.2 7.0 0.00 0.00 0.00 39 1014.3
20260502111523 77 232 7.0 11.3 0.00 0.00 0.00 40 1014.1
20260502110515 75 260 8.7 9.6 0.00 0.00 0.00 41 1015.1
20260502105523 77 240 6.1 8.7 0.00 0.00 0.00 43 1015.1
20260502104543 75 234 3.5 5.2 0.00 0.00 0.00 44 1015.1
20260502103523 74 267 3.5 4.3 0.00 0.00 0.00 45 1015.1
20260502102523 72 248 7.0 9.6 0.00 0.00 0.00 46 1015.1
20260502101523 72 248 5.2 7.8 0.00 0.00 0.00 47 1015.1
20260502100523 71 238 6.1 13.9 0.00 0.00 0.00 48 1015.1
20260502091524 67 275 6.1 11.3 0.00 0.00 0.00 51 1015.1
20260502090518 66 187 9.6 13.9 0.00 0.00 0.00 52 1016.1
20260502071523 59 245 6.1 7.8 0.00 0.00 0.00 65 1016.1
20260502070523 58 274 2.6 8.7 0.00 0.00 0.00 68 1017.1
20260502065516 56 248 4.3 7.8 0.00 0.00 0.00 70 1017.1
20260502064523 55 233 2.6 4.3 0.00 0.00 0.00 73 1017.1
20260502063516 54 195 1.7 5.2 0.00 0.00 0.00 76 1017.1
20260502062515 52 256 0.9 2.6 0.00 0.00 0.00 78 1017.1
20260502061523 50 235 0.9 3.5 0.00 0.00 0.00 80 1017.1
20260502060544 49 0.0 0.0 0.00 0.00 0.00 81 1017.1
20260502055543 47 0.0 0.0 0.00 0.00 0.00 81 1017.1
20260502054523 46 0.0 0.0 0.00 0.00 0.00 81 1017.1
20260502053523 45 0.0 0.0 0.00 0.00 0.00 80 1017.1
20260502052603 44 0.0 0.0 0.00 0.00 0.00 80 1017.1
20260502051526 43 0.0 0.0 0.00 0.00 0.00 80 1017.1
20260502050523 43 0.0 0.0 0.00 0.00 0.00 79 1018.1
20260502045604 42 0.0 0.0 0.00 0.00 0.00 79 1018.1
20260502044523 41 0.0 0.0 0.00 0.00 0.00 79 1018.1
20260502043523 41 0.0 0.0 0.00 0.00 0.00 78 1018.1
20260502042527 41 0.0 0.0 0.00 0.00 0.00 78 1018.1
20260502041523 41 0.0 0.0 0.00 0.00 0.00 78 1018.1
20260502040544 41 0.0 0.0 0.00 0.00 0.00 78 1018.1
20260502035523 41 0.0 0.0 0.00 0.00 0.00 78 1019.1
20260502034521 41 0.0 0.0 0.00 0.00 0.00 77 1019.1
20260502033543 41 0.0 0.0 0.00 0.00 0.00 77 1019.1
20260502032526 41 0.0 0.0 0.00 0.00 0.00 76 1019.1
20260502031519 41 0.0 0.0 0.00 0.00 0.00 75 1019.1
20260502030524 41 0.0 0.0 0.00 0.00 0.00 75 1019.1
20260502025543 41 0.0 0.0 0.00 0.00 0.00 75 1019.1
20260502024559 42 0.0 0.0 0.00 0.00 0.00 74 1019.1
20260502023523 42 0.0 0.0 0.00 0.00 0.00 73 1019.1
20260502022523 42 0.0 0.0 0.00 0.00 0.00 72 1019.9
20260502021516 42 0.0 0.0 0.00 0.00 0.00 72 1020.1
20260502020523 42 68 0.0 0.9 0.00 0.00 0.00 71 1020.1
20260502015524 42 0.0 0.0 0.00 0.00 0.00 70 1020.1
20260502014523 42 0.0 0.0 0.00 0.00 0.00 69 1020.1
20260502013523 42 0.0 0.0 0.00 0.00 0.00 69 1020.1
20260502012523 41 0.0 0.0 0.00 0.00 0.00 69 1020.1
20260502011522 41 0.0 0.0 0.00 0.00 0.00 69 1020.1
20260502010520 41 0.0 0.0 0.00 0.00 0.00 68 1021.1
20260502005518 41 0.0 0.0 0.00 0.00 0.00 67 1021.1
20260502004536 41 0.0 0.0 0.00 0.00 0.00 67 1021.1
20260502003523 41 0.0 0.0 0.00 0.00 0.00 67 1021.1
20260502002543 42 0.0 0.0 0.00 0.00 0.00 66 1021.1
20260502001608 42 0.0 0.0 0.00 0.00 0.00 65 1021.1
20260502000523 42 0.0 0.0 0.00 0.00 0.00 65 1021.1
20260501235544 43 0.0 0.0 0.00 0.00 0.00 63 1021.1
20260501234526 43 0.0 0.0 0.00 0.00 0.00 64 1021.1
20260501233522 43 0.0 0.0 0.00 0.00 0.00 64 1022.1
20260501232547 43 0.0 0.0 0.00 0.00 0.00 64 1022.1
20260501231524 43 0.0 0.0 0.00 0.00 0.00 63 1022.1
20260501230520 44 0.0 0.0 0.00 0.00 0.00 62 1022.1
20260501225545 45 0.0 0.0 0.00 0.00 0.00 62 1022.1
20260501224520 45 0.0 0.0 0.00 0.00 0.00 62 1022.1
20260501223518 46 0.0 0.0 0.00 0.00 0.00 61 1022.1
20260501222516 46 0.0 0.0 0.00 0.00 0.00 61 1022.1
20260501221603 46 0.0 0.0 0.00 0.00 0.00 61 1022.1
20260501220604 46 0.0 0.0 0.00 0.00 0.00 60 1022.1
20260501215523 46 0.0 0.0 0.00 0.00 0.00 60 1022.1
20260501214523 47 0.0 0.0 0.00 0.00 0.00 58 1022.1
20260501213523 48 0.0 0.0 0.00 0.00 0.00 57 1023.1
20260501212525 48 0.0 0.0 0.00 0.00 0.00 56 1023.1
20260501211523 48 0.0 0.0 0.00 0.00 0.00 56 1023.1
20260501210523 49 0.0 0.0 0.00 0.00 0.00 55 1023.1
20260501205543 49 0.0 0.0 0.00 0.00 0.00 54 1023.1
20260501204523 49 0.0 0.0 0.00 0.00 0.00 54 1023.1
20260501203523 50 0.0 0.0 0.00 0.00 0.00 53 1023.1
20260501202523 50 0.0 0.0 0.00 0.00 0.00 52 1023.1
20260501201523 51 0.0 0.0 0.00 0.00 0.00 51 1023.1
20260501200523 51 0.0 0.0 0.00 0.00 0.00 52 1023.1